This is the latest recevied weather packets stored in our database for station/object JA6YCL-13. If no packets are shown the sender has not sent any weather packets the latest 10 day(s).
| Time | Temp. | Humidity | Pressure | Rain* | Wind** | Luminosity | Snow |
|---|---|---|---|---|---|---|---|
| 1778088758 | 13.33° C | 91% | 1016.3 hPa | 0 mm | - | - | - |
| 1778087883 | 13.33° C | 90% | 1016.5 hPa | 0 mm | - | - | - |
| 1778087033 | 13.33° C | 91% | 1016.6 hPa | 0 mm | - | - | - |
| 1778086155 | 13.33° C | 90% | 1016.6 hPa | 0 mm | - | - | - |
| 1778085318 | 13.33° C | 91% | 1016.5 hPa | 0 mm | - | - | - |
| 1778084583 | 13.33° C | 91% | 1016.6 hPa | 0 mm | - | - | - |
| 1778083788 | 13.89° C | 91% | 1016.7 hPa | 0 mm | - | - | - |
| 1778082993 | 13.89° C | 90% | 1016.9 hPa | 0 mm | - | - | - |
| 1778082171 | 13.89° C | 89% | 1017.1 hPa | 0 mm | - | - | - |
| 1778081283 | 14.44° C | 88% | 1017.6 hPa | 0 mm | - | - | - |
| 1778080423 | 14.44° C | 87% | 1017.6 hPa | 0 mm | - | - | - |
| 1778079697 | 14.44° C | 86% | 1017.6 hPa | 0 mm | - | - | - |
| 1778078921 | 14.44° C | 87% | 1017.8 hPa | 0 mm | - | - | - |
| 1778078179 | 14.44° C | 86% | 1018 hPa | 0 mm | - | - | - |
| 1778077363 | 14.44° C | 85% | 1017.9 hPa | 0 mm | - | - | - |
| 1778076498 | 15° C | 82% | 1017.6 hPa | 0 mm | - | - | - |
| 1778075663 | 15° C | 82% | 1017.8 hPa | 0 mm | - | - | - |
| 1778074788 | 15.56° C | 80% | 1017.6 hPa | 0 mm | - | - | - |
| 1778073888 | 15.56° C | 80% | 1017.7 hPa | 0 mm | - | - | - |
| 1778073143 | 16.11° C | 79% | 1017.7 hPa | 0 mm | - | - | - |
| 1778072280 | 16.67° C | 75% | 1017.7 hPa | 0 mm | - | - | - |
| 1778071485 | 17.22° C | 72% | 1017.7 hPa | 0 mm | - | - | - |
| 1778070728 | 17.22° C | 71% | 1017.7 hPa | 0 mm | - | - | - |
| 1778069835 | 17.22° C | 71% | 1017.6 hPa | 0 mm | - | - | - |
| 1778068954 | 17.22° C | 67% | 1017.4 hPa | 0 mm | - | - | - |
* Rain latest hour (hover to see other rain measurements)
** Current wind speed in m/s (hover to see current wind gust speed)